Waterville, ME

7:11 PM EST on February 08, 2016 (GMT -0500)
Waterville Lafleur

Weather History for KWVL - February, 2014

Change the Weather History Date:

Saturday, February 22, 2014

  Actual Average (KAUG) Record (KAUG)
Temperature  
Mean Temperature 37 °F 25 °F  
Max Temperature 46 °F 34 °F - ()
Min Temperature 28 °F 16 °F - ()
Degree Days  
Heating Degree Days 28 40  
Month to date heating degree days 938  
Since 1 July heating degree days 5109  
Cooling Degree Days 0 0  
Month to date cooling degree days 0  
Year to date cooling degree days 0  
Moisture  
Dew Point 27 °F    
Average Humidity 69    
Maximum Humidity 100    
Minimum Humidity 41    
Precipitation  
Precipitation 0.23 in 0.09 in - ()
Month to date precipitation 1.86  
Year to date precipitation 4.47  
Sea Level Pressure  
Sea Level Pressure 29.73 in    
Wind  
Wind Speed 6 mph (SSW)    
Max Wind Speed 15 mph    
Max Gust Speed 22 mph    
Visibility 8 miles    
Events      
T = Trace of Precipitation, MM = Missing Value Source: NWS Daily Summary

Daily Weather History Graph

Daily Weather History Graph

Search for Another Location

Airport or City:

Trip Planner

Search our weather history database for the weather conditions in past years. The results will help you decide how hot, cold, wet, or windy it might be!

Date:

Astronomy

Feb. 22, 2014 Rise Set
Actual Time 6:27 AM EST 5:17 PM EST
Civil Twilight 5:58 AM EST 5:46 PM EST
Nautical Twilight 5:24 AM EST 6:20 PM EST
Astronomical Twilight 4:50 AM EST 6:54 PM EST
Moon 12:25 AM EST (2/22) 10:19 AM EST (2/22)
Length of Visible Light 11h 48m
Length of Day
10h 49m
Waning Gibbous, 50% of the Moon is Illuminated
Feb 22
Waning Gibbous
Feb 22
Last Quarter
Mar 1
New
Mar 8
First Quarter
Mar 16
Full

Hourly Weather History & Observations

Time (EST) Temp. Windchill Dew Point Humidity Pressure Visibility Wind Dir Wind Speed Gust Speed Precip Events Conditions
12:15 AM 35.6 °F 28.6 °F 33.8 °F 93% 29.69 in 10.0 mi NW 9.2 mph - N/A   Mostly Cloudy
12:35 AM 35.6 °F 30.7 °F 33.8 °F 93% 29.70 in 10.0 mi NW 5.8 mph - N/A   Overcast
12:55 AM 35.6 °F 32.8 °F 33.8 °F 93% 29.70 in 10.0 mi West 3.5 mph - N/A   Partly Cloudy
1:15 AM 33.8 °F 29.6 °F 33.8 °F 100% 29.70 in 10.0 mi West 4.6 mph - N/A   Clear
1:35 AM 33.8 °F - 30.2 °F 87% 29.70 in 10.0 mi Calm Calm - N/A   Clear
1:55 AM 30.2 °F - 28.4 °F 93% 29.70 in 8.0 mi Calm Calm - N/A   Clear
2:15 AM 30.2 °F 26.7 °F 28.4 °F 93% 29.71 in 0.2 mi SSW 3.5 mph - N/A   Unknown
2:35 AM 30.2 °F 26.7 °F 28.4 °F 93% 29.72 in 0.5 mi SSW 3.5 mph - N/A   Unknown
2:55 AM 30.2 °F 25.4 °F 30.2 °F 100% 29.73 in 0.8 mi SSW 4.6 mph - N/A   Unknown
3:15 AM 30.2 °F 25.4 °F 30.2 °F 100% 29.74 in 1.2 mi SSW 4.6 mph - N/A   Mostly Cloudy
3:35 AM 30.2 °F 26.7 °F 28.4 °F 93% 29.74 in 0.8 mi South 3.5 mph - N/A   Mostly Cloudy
3:55 AM 28.4 °F 24.6 °F 28.4 °F 100% 29.74 in 0.5 mi SSW 3.5 mph - N/A   Overcast
4:15 AM 28.4 °F 22.2 °F 28.4 °F 100% 29.75 in 0.2 mi SW 5.8 mph - N/A   Overcast
4:35 AM 28.4 °F 22.2 °F 28.4 °F 100% 29.75 in 1.5 mi SSW 5.8 mph - N/A   Scattered Clouds
4:55 AM 28.4 °F 22.2 °F 28.4 °F 100% 29.76 in 6.0 mi SSW 5.8 mph - N/A   Clear
5:15 AM 28.4 °F 22.2 °F 26.6 °F 93% 29.76 in 0.2 mi SSW 5.8 mph - N/A   Mostly Cloudy
5:35 AM 28.4 °F 23.3 °F 26.6 °F 93% 29.76 in 0.2 mi SW 4.6 mph - N/A   Overcast
5:55 AM 28.4 °F - 26.6 °F 93% 29.76 in 0.2 mi Calm Calm - N/A   Overcast
6:15 AM 28.4 °F - 28.4 °F 100% 29.76 in 0.5 mi Calm Calm - N/A   Overcast
6:35 AM 28.4 °F 22.2 °F 28.4 °F 100% 29.76 in 0.2 mi SW 5.8 mph - N/A   Overcast
6:55 AM 28.4 °F 22.2 °F 26.6 °F 93% 29.77 in 0.2 mi SSW 5.8 mph - N/A   Overcast
7:15 AM 28.4 °F 23.3 °F 28.4 °F 100% 29.78 in 0.2 mi SSW 4.6 mph - N/A   Overcast
7:35 AM 28.4 °F 23.3 °F 28.4 °F 100% 29.78 in 3.0 mi SW 4.6 mph - N/A   Mostly Cloudy
7:55 AM 28.4 °F - 28.4 °F 100% 29.79 in 5.0 mi Calm Calm - N/A   Partly Cloudy
8:15 AM 30.2 °F - 28.4 °F 93% 29.79 in 7.0 mi Calm Calm - N/A   Clear
8:35 AM 30.2 °F 25.4 °F 30.2 °F 100% 29.79 in 6.0 mi SSW 4.6 mph - N/A   Partly Cloudy
8:55 AM 33.8 °F 28.6 °F 33.8 °F 100% 29.79 in 10.0 mi SSW 5.8 mph - N/A   Clear
9:15 AM 33.8 °F - 32.0 °F 93% 29.79 in 10.0 mi Calm Calm - N/A   Clear
9:35 AM 35.6 °F 31.7 °F 35.6 °F 100% 29.78 in 10.0 mi SSW 4.6 mph - N/A   Clear
9:55 AM 39.2 °F 33.0 °F 32.0 °F 75% 29.78 in 10.0 mi SSW 9.2 mph - N/A   Clear
10:15 AM 39.2 °F 34.2 °F 30.2 °F 70% 29.78 in 10.0 mi SSW 6.9 mph - N/A   Clear
10:35 AM 41.0 °F 35.8 °F 30.2 °F 65% 29.78 in 10.0 mi SSW 8.1 mph - N/A   Clear
10:55 AM 42.8 °F 37.0 °F 28.4 °F 57% 29.77 in 10.0 mi SSW 10.4 mph 16.1 mph N/A   Clear
11:15 AM 42.8 °F 39.3 °F 28.4 °F 57% 29.75 in 10.0 mi SSW 5.8 mph - N/A   Clear
11:35 AM 42.8 °F 39.3 °F 28.4 °F 57% 29.74 in 10.0 mi SSW 5.8 mph - N/A   Clear
11:55 AM 44.6 °F 40.2 °F 26.6 °F 49% 29.73 in 10.0 mi South 8.1 mph 18.4 mph N/A   Clear
12:15 PM 44.6 °F 39.7 °F 24.8 °F 46% 29.73 in 10.0 mi SW 9.2 mph - N/A   Clear
12:35 PM 44.6 °F 37.8 °F 24.8 °F 46% 29.72 in 10.0 mi SSW 15.0 mph 21.9 mph N/A   Clear
12:55 PM 46.4 °F 40.7 °F 24.8 °F 43% 29.71 in 10.0 mi SSW 12.7 mph 18.4 mph N/A   Clear
1:15 PM 46.4 °F 40.1 °F 24.8 °F 43% 29.70 in 10.0 mi SSW 15.0 mph 20.7 mph N/A   Clear
1:35 PM 44.6 °F 40.7 °F 26.6 °F 49% 29.70 in 10.0 mi South 6.9 mph - N/A   Clear
1:55 PM 44.6 °F 39.2 °F 26.6 °F 49% 29.69 in 10.0 mi South 10.4 mph 16.1 mph N/A   Mostly Cloudy
2:15 PM 44.6 °F 39.7 °F 26.6 °F 49% 29.69 in 10.0 mi SSW 9.2 mph 16.1 mph N/A   Overcast
2:35 PM 42.8 °F 38.0 °F 26.6 °F 53% 29.68 in 10.0 mi South 8.1 mph - N/A   Overcast
2:55 PM 44.6 °F 40.7 °F 26.6 °F 49% 29.68 in 10.0 mi South 6.9 mph 17.3 mph N/A   Overcast
3:15 PM 44.6 °F 39.7 °F 26.6 °F 49% 29.68 in 10.0 mi South 9.2 mph 17.3 mph N/A   Mostly Cloudy
3:35 PM 44.6 °F 38.4 °F 26.6 °F 49% 29.68 in 10.0 mi South 12.7 mph 18.4 mph N/A   Mostly Cloudy
3:55 PM 44.6 °F 39.7 °F 26.6 °F 49% 29.68 in 10.0 mi South 9.2 mph - N/A   Scattered Clouds
4:15 PM 42.8 °F 38.0 °F 26.6 °F 53% 29.68 in 10.0 mi South 8.1 mph - N/A   Scattered Clouds
4:35 PM 44.6 °F 40.2 °F 26.6 °F 49% 29.68 in 10.0 mi SSW 8.1 mph - N/A   Scattered Clouds
4:55 PM 42.8 °F 39.3 °F 26.6 °F 53% 29.68 in 10.0 mi SSW 5.8 mph - N/A   Partly Cloudy
5:15 PM 42.8 °F 39.3 °F 26.6 °F 53% 29.68 in 10.0 mi South 5.8 mph - N/A   Partly Cloudy
5:35 PM 42.8 °F 38.6 °F 26.6 °F 53% 29.69 in 10.0 mi South 6.9 mph - N/A   Partly Cloudy
5:55 PM 41.0 °F 37.1 °F 26.6 °F 57% 29.69 in 10.0 mi South 5.8 mph - N/A   Clear
6:15 PM 41.0 °F 37.1 °F 24.8 °F 53% 29.70 in 10.0 mi SSW 5.8 mph - N/A   Clear
6:35 PM 39.2 °F 35.0 °F 24.8 °F 56% 29.70 in 10.0 mi SSW 5.8 mph - N/A   Clear
6:55 PM 39.2 °F 35.9 °F 24.8 °F 56% 29.70 in 10.0 mi SSW 4.6 mph - N/A   Clear
7:15 PM 39.2 °F 34.2 °F 24.8 °F 56% 29.70 in 10.0 mi South 6.9 mph - N/A   Clear
7:35 PM 39.2 °F 35.0 °F 23.0 °F 52% 29.69 in 10.0 mi South 5.8 mph - N/A   Clear
7:55 PM 39.2 °F 34.2 °F 21.2 °F 49% 29.69 in 10.0 mi South 6.9 mph - N/A   Clear
8:15 PM 39.2 °F 35.0 °F 21.2 °F 49% 29.70 in 10.0 mi SSW 5.8 mph - N/A   Clear
8:35 PM 39.2 °F 34.2 °F 21.2 °F 49% 29.70 in 10.0 mi SSW 6.9 mph - N/A   Clear
8:55 PM 39.2 °F 34.2 °F 21.2 °F 49% 29.71 in 10.0 mi SSW 6.9 mph - N/A   Clear
9:15 PM 39.2 °F 32.5 °F 21.2 °F 49% 29.72 in 10.0 mi SW 10.4 mph - N/A   Clear
9:35 PM 39.2 °F 32.0 °F 21.2 °F 49% 29.73 in 10.0 mi SW 11.5 mph - N/A   Clear
9:55 PM 39.2 °F 32.5 °F 21.2 °F 49% 29.73 in 10.0 mi SW 10.4 mph - N/A   Clear
10:15 PM 37.4 °F 31.4 °F 19.4 °F 48% 29.74 in 10.0 mi SW 8.1 mph - N/A   Clear
10:35 PM 39.2 °F 35.0 °F 17.6 °F 42% 29.74 in 10.0 mi WSW 5.8 mph - N/A   Clear
10:55 PM 37.4 °F 32.1 °F 17.6 °F 45% 29.75 in 10.0 mi WSW 6.9 mph - N/A   Clear
11:15 PM 37.4 °F 32.8 °F 17.6 °F 45% 29.75 in 10.0 mi SW 5.8 mph - N/A   Clear
11:35 PM 35.6 °F 29.9 °F 15.8 °F 44% 29.76 in 10.0 mi SW 6.9 mph - N/A   Clear
11:55 PM 37.4 °F 32.1 °F 15.8 °F 41% 29.77 in 10.0 mi WSW 6.9 mph - N/A   Clear